JLY7990 SBPA-SBCT

Flight info

Callsign JLY7990
Flight time 0h 47m
Altitude 33000
Route PENSO UZ132 VUGUP
Aircraft B738/M-SDE2E3FGHIRWXY/LB1

Departure

Time 2026-05-03 20:18
Airport Porto Alegre-Salgado Filho International Airport (SBPA)

Arrival

Time 2026-05-03 21:05
Airport Curitiba-Afonso Pena International Airport (SBCT)
Time Latitude Longitude Altitude Speed Heading
2026-05-03 20:15 -29.99161 -51.18060 13 ft 0 kts 209°
2026-05-03 20:15 -29.99168 -51.18065 14 ft 2 kts 209°
2026-05-03 20:15 -29.99184 -51.18075 14 ft 3 kts 209°
2026-05-03 20:15 -29.99209 -51.18092 12 ft 8 kts 217°
2026-05-03 20:16 -29.99258 -51.18167 12 ft 14 kts 228°
2026-05-03 20:16 -29.99280 -51.18186 14 ft 0 kts 212°
2026-05-03 20:16 -29.99288 -51.18192 13 ft 10 kts 212°
2026-05-03 20:17 -29.99387 -51.18256 13 ft 15 kts 208°
2026-05-03 20:17 -29.99439 -51.18265 13 ft 4 kts 125°
2026-05-03 20:17 -29.99440 -51.18250 13 ft 0 kts 88°
2026-05-03 20:18 -29.99443 -51.18044 14 ft 69 kts 91°
2026-05-03 20:18 -29.99461 -51.17147 12 ft 151 kts 91°
2026-05-03 20:18 -29.99483 -51.15727 323 ft 197 kts 91°
2026-05-03 20:18 -29.99500 -51.14168 1530 ft 187 kts 89°
2026-05-03 20:19 -29.99485 -51.12727 2903 ft 181 kts 90°
2026-05-03 20:19 -29.99532 -51.11192 3430 ft 204 kts 89°
2026-05-03 20:19 -29.99580 -51.09456 3639 ft 228 kts 90°
2026-05-03 20:19 -29.99623 -51.07585 4114 ft 237 kts 90°
2026-05-03 20:20 -29.99630 -51.05670 4716 ft 240 kts 84°
2026-05-03 20:20 -29.98977 -51.03887 5240 ft 249 kts 50°
2026-05-03 20:20 -29.97549 -51.02772 5796 ft 256 kts 18°
2026-05-03 20:20 -29.95790 -51.02666 6560 ft 255 kts 348°
2026-05-03 20:21 -29.94007 -51.02720 7431 ft 262 kts 16°
2026-05-03 20:21 -29.92428 -51.01670 8480 ft 264 kts 35°
2026-05-03 20:21 -29.90924 -51.00401 9341 ft 273 kts 32°
2026-05-03 20:21 -29.89346 -50.99135 10227 ft 279 kts 30°
2026-05-03 20:22 -29.87714 -50.97891 11070 ft 283 kts 28°
2026-05-03 20:22 -29.86001 -50.96636 11510 ft 302 kts 28°
2026-05-03 20:22 -29.84136 -50.95303 11689 ft 327 kts 27°
2026-05-03 20:22 -29.82132 -50.93882 11882 ft 350 kts 28°
2026-05-03 20:23 -29.79967 -50.92435 12040 ft 369 kts 20°
2026-05-03 20:23 -29.77446 -50.91800 12193 ft 377 kts 357°
2026-05-03 20:23 -29.74822 -50.91834 12563 ft 387 kts 354°
2026-05-03 20:23 -29.72096 -50.91927 13047 ft 394 kts 354°
2026-05-03 20:24 -29.69345 -50.92024 13700 ft 396 kts 354°
2026-05-03 20:24 -29.66586 -50.92111 14375 ft 397 kts 354°
2026-05-03 20:24 -29.63820 -50.92188 14971 ft 398 kts 354°
2026-05-03 20:24 -29.61031 -50.92258 15511 ft 402 kts 354°
2026-05-03 20:25 -29.58220 -50.92323 16012 ft 406 kts 354°
2026-05-03 20:25 -29.55383 -50.92386 16523 ft 410 kts 354°
2026-05-03 20:25 -29.52522 -50.92448 17042 ft 413 kts 354°
2026-05-03 20:25 -29.49639 -50.92510 17555 ft 416 kts 354°
2026-05-03 20:26 -29.46724 -50.92574 18029 ft 420 kts 354°
2026-05-03 20:26 -29.43797 -50.92637 18509 ft 423 kts 354°
2026-05-03 20:26 -29.40840 -50.92701 18932 ft 426 kts 355°
2026-05-03 20:26 -29.37866 -50.92764 19369 ft 428 kts 355°
2026-05-03 20:27 -29.34917 -50.92827 19807 ft 431 kts 355°
2026-05-03 20:27 -29.31909 -50.92893 20234 ft 434 kts 355°
2026-05-03 20:27 -29.28877 -50.92959 20655 ft 436 kts 355°
2026-05-03 20:27 -29.25834 -50.93025 21077 ft 439 kts 355°
2026-05-03 20:28 -29.22767 -50.93091 21464 ft 442 kts 354°
2026-05-03 20:28 -29.19684 -50.93196 21864 ft 443 kts 352°
2026-05-03 20:28 -29.16620 -50.93569 22305 ft 443 kts 348°
2026-05-03 20:28 -29.13568 -50.94091 22714 ft 444 kts 347°
2026-05-03 20:29 -29.10503 -50.94653 23090 ft 447 kts 347°
2026-05-03 20:29 -29.08467 -50.95021 23327 ft 449 kts 347°
2026-05-03 20:29 -29.05358 -50.95562 23684 ft 453 kts 347°
2026-05-03 20:29 -29.02230 -50.96080 23987 ft 455 kts 348°
2026-05-03 20:30 -28.99098 -50.96582 24308 ft 457 kts 348°
2026-05-03 20:30 -28.95940 -50.97079 24622 ft 459 kts 348°
2026-05-03 20:30 -28.92763 -50.97578 24922 ft 461 kts 348°
2026-05-03 20:30 -28.89585 -50.98077 25215 ft 463 kts 348°
2026-05-03 20:31 -28.86380 -50.98582 25523 ft 465 kts 348°
2026-05-03 20:31 -28.83169 -50.99089 25809 ft 467 kts 348°
2026-05-03 20:31 -28.79923 -50.99451 26081 ft 474 kts 357°
2026-05-03 20:31 -28.76615 -50.98912 26344 ft 483 kts
2026-05-03 20:32 -28.73325 -50.98090 26610 ft 485 kts
2026-05-03 20:32 -28.70015 -50.97254 26813 ft 488 kts
2026-05-03 20:32 -28.66694 -50.96433 27052 ft 490 kts
2026-05-03 20:32 -28.63388 -50.95640 27292 ft 492 kts
2026-05-03 20:33 -28.60031 -50.94853 27539 ft 493 kts
2026-05-03 20:33 -28.56660 -50.94076 27773 ft 495 kts
2026-05-03 20:33 -28.53272 -50.93301 28078 ft 495 kts
2026-05-03 20:33 -28.51034 -50.92790 28306 ft 494 kts
2026-05-03 20:34 -28.46525 -50.91760 28750 ft 494 kts
2026-05-03 20:34 -28.43145 -50.90988 29075 ft 494 kts
2026-05-03 20:34 -28.39773 -50.90218 29423 ft 494 kts
2026-05-03 20:34 -28.36403 -50.89447 29788 ft 493 kts
2026-05-03 20:35 -28.33076 -50.88687 30147 ft 493 kts
2026-05-03 20:35 -28.29719 -50.87920 30469 ft 492 kts
2026-05-03 20:35 -28.26359 -50.87153 30751 ft 492 kts
2026-05-03 20:35 -28.22996 -50.86386 31027 ft 492 kts
2026-05-03 20:36 -28.19634 -50.85621 31289 ft 492 kts
2026-05-03 20:36 -28.16275 -50.84856 31574 ft 492 kts
2026-05-03 20:36 -28.12929 -50.84094 31911 ft 491 kts
2026-05-03 20:36 -28.09582 -50.83332 32214 ft 490 kts
2026-05-03 20:37 -28.06237 -50.82571 32490 ft 490 kts
2026-05-03 20:37 -28.02945 -50.81444 32722 ft 503 kts 19°
2026-05-03 20:37 -27.99829 -50.79624 33002 ft 506 kts 22°
2026-05-03 20:37 -27.96741 -50.77702 33182 ft 508 kts 23°
2026-05-03 20:38 -27.93637 -50.75756 33178 ft 511 kts 23°
2026-05-03 20:38 -27.87404 -50.71913 33176 ft 507 kts 22°
2026-05-03 20:39 -27.81198 -50.68184 33187 ft 504 kts 21°
2026-05-03 20:39 -27.75042 -50.64521 33178 ft 503 kts 21°
2026-05-03 20:40 -27.68858 -50.60844 33183 ft 502 kts 21°
2026-05-03 20:40 -27.62675 -50.57166 33185 ft 503 kts 21°
2026-05-03 20:41 -27.56482 -50.53486 33190 ft 504 kts 21°
2026-05-03 20:41 -27.50260 -50.49792 33202 ft 506 kts 21°
2026-05-03 20:42 -27.44010 -50.46086 33191 ft 508 kts 21°
2026-05-03 20:42 -27.37755 -50.42341 33193 ft 510 kts 22°
2026-05-03 20:43 -27.31528 -50.38585 33198 ft 511 kts 22°
2026-05-03 20:43 -27.25257 -50.34814 33188 ft 511 kts 22°
2026-05-03 20:44 -27.18976 -50.31059 33202 ft 510 kts 21°
2026-05-03 20:44 -27.12701 -50.27363 33173 ft 509 kts 21°
2026-05-03 20:45 -27.06429 -50.23681 33202 ft 508 kts 21°
2026-05-03 20:45 -27.00218 -50.20033 33202 ft 507 kts 21°
2026-05-03 20:46 -26.93986 -50.16371 33204 ft 506 kts 21°
2026-05-03 20:46 -26.87746 -50.12710 33213 ft 506 kts 21°
2026-05-03 20:47 -26.81481 -50.09041 32641 ft 513 kts 20°
2026-05-03 20:47 -26.78324 -50.07194 31994 ft 510 kts 20°
2026-05-03 20:47 -26.75184 -50.05356 31284 ft 510 kts 20°
2026-05-03 20:47 -26.72034 -50.03513 30541 ft 511 kts 20°
2026-05-03 20:48 -26.68872 -50.01665 29636 ft 513 kts 21°
2026-05-03 20:48 -26.65805 -49.99874 28763 ft 513 kts 21°
2026-05-03 20:48 -26.62640 -49.98027 27877 ft 513 kts 21°
2026-05-03 20:48 -26.59476 -49.96181 26978 ft 513 kts 21°
2026-05-03 20:49 -26.56316 -49.94339 26032 ft 514 kts 21°
2026-05-03 20:49 -26.53159 -49.92498 25376 ft 508 kts 22°
2026-05-03 20:49 -26.50040 -49.90679 24718 ft 503 kts 22°
2026-05-03 20:49 -26.46970 -49.88892 24038 ft 500 kts 22°
2026-05-03 20:50 -26.43864 -49.87086 23280 ft 496 kts 22°
2026-05-03 20:50 -26.40850 -49.85335 22562 ft 491 kts 23°
2026-05-03 20:50 -26.37837 -49.83584 21878 ft 485 kts 23°
2026-05-03 20:50 -26.34853 -49.81852 21209 ft 480 kts 23°
2026-05-03 20:51 -26.31867 -49.80268 20541 ft 471 kts 18°
2026-05-03 20:51 -26.28820 -49.79006 19908 ft 464 kts 14°
2026-05-03 20:51 -26.25776 -49.77874 19251 ft 459 kts 14°
2026-05-03 20:51 -26.22751 -49.76758 18592 ft 455 kts 15°
2026-05-03 20:52 -26.19770 -49.75622 17867 ft 452 kts 15°
2026-05-03 20:52 -26.16814 -49.74458 17186 ft 447 kts 16°
2026-05-03 20:52 -26.13912 -49.73296 16540 ft 441 kts 17°
2026-05-03 20:52 -26.11072 -49.72156 15899 ft 436 kts 17°
2026-05-03 20:53 -26.08233 -49.71020 15270 ft 431 kts 17°
2026-05-03 20:53 -26.05421 -49.69901 14624 ft 427 kts 17°
2026-05-03 20:53 -26.02640 -49.68797 14097 ft 420 kts 18°
2026-05-03 20:53 -25.99896 -49.67709 13359 ft 418 kts 18°
2026-05-03 20:54 -25.97173 -49.66628 12633 ft 415 kts 18°
2026-05-03 20:54 -25.91814 -49.64503 11423 ft 405 kts 18°
2026-05-03 20:54 -25.89207 -49.63468 11243 ft 389 kts 18°
2026-05-03 20:55 -25.86709 -49.62477 11133 ft 373 kts 17°
2026-05-03 20:55 -25.84310 -49.61526 11033 ft 359 kts 17°
2026-05-03 20:55 -25.82015 -49.60616 10924 ft 340 kts 17°
2026-05-03 20:55 -25.79833 -49.59752 10720 ft 324 kts 17°
2026-05-03 20:56 -25.77772 -49.58937 10572 ft 307 kts 17°
2026-05-03 20:56 -25.75831 -49.58170 10438 ft 292 kts 17°
2026-05-03 20:56 -25.73958 -49.57430 10324 ft 281 kts 17°
2026-05-03 20:56 -25.72136 -49.56711 10202 ft 274 kts 16°
2026-05-03 20:57 -25.70337 -49.56003 9917 ft 274 kts 16°
2026-05-03 20:57 -25.68544 -49.55297 9645 ft 272 kts 16°
2026-05-03 20:57 -25.66755 -49.54592 9319 ft 273 kts 16°
2026-05-03 20:57 -25.64945 -49.53879 8893 ft 277 kts 16°
2026-05-03 20:58 -25.63124 -49.53161 8576 ft 277 kts 17°
2026-05-03 20:58 -25.61333 -49.52454 8303 ft 276 kts 17°
2026-05-03 20:58 -25.59531 -49.51719 8016 ft 276 kts 22°
2026-05-03 20:58 -25.58012 -49.50456 7949 ft 272 kts 42°
2026-05-03 20:59 -25.56675 -49.48978 7879 ft 271 kts 43°
2026-05-03 20:59 -25.55331 -49.47500 7825 ft 274 kts 43°
2026-05-03 20:59 -25.53960 -49.46001 7752 ft 279 kts 42°
2026-05-03 20:59 -25.52578 -49.44495 7701 ft 278 kts 42°
2026-05-03 21:00 -25.51199 -49.42999 7643 ft 275 kts 42°
2026-05-03 21:00 -25.50295 -49.42019 7590 ft 274 kts 42°
2026-05-03 21:00 -25.48481 -49.40057 7513 ft 271 kts 42°
2026-05-03 21:00 -25.47138 -49.38605 7331 ft 270 kts 42°
2026-05-03 21:01 -25.45795 -49.37154 7062 ft 269 kts 41°
2026-05-03 21:01 -25.44469 -49.35723 6780 ft 269 kts 41°
2026-05-03 21:01 -25.43129 -49.34277 6489 ft 269 kts 42°
2026-05-03 21:01 -25.41889 -49.32734 6226 ft 266 kts 60°
2026-05-03 21:02 -25.41529 -49.30825 6027 ft 253 kts 95°
2026-05-03 21:02 -25.42238 -49.29119 5739 ft 243 kts 131°
2026-05-03 21:02 -25.43499 -49.27944 5444 ft 231 kts 139°
2026-05-03 21:02 -25.44647 -49.26814 5153 ft 211 kts 131°
2026-05-03 21:03 -25.45622 -49.25722 4901 ft 188 kts 130°
2026-05-03 21:03 -25.46488 -49.24741 4638 ft 168 kts 130°
2026-05-03 21:03 -25.47254 -49.23876 4452 ft 150 kts 130°
2026-05-03 21:03 -25.47984 -49.23051 4243 ft 149 kts 130°
2026-05-03 21:04 -25.48704 -49.22239 4039 ft 148 kts 130°
2026-05-03 21:04 -25.49426 -49.21426 3832 ft 147 kts 131°
2026-05-03 21:04 -25.50135 -49.20627 3627 ft 144 kts 132°
2026-05-03 21:04 -25.50837 -49.19835 3390 ft 144 kts 133°
2026-05-03 21:05 -25.51529 -49.19057 3212 ft 145 kts 134°
2026-05-03 21:05 -25.52226 -49.18271 3014 ft 138 kts 133°
2026-05-03 21:05 -25.52825 -49.17603 2987 ft 95 kts 134°
2026-05-03 21:05 -25.53084 -49.17314 2987 ft 25 kts 135°
2026-05-03 21:06 -25.53172 -49.17312 2987 ft 12 kts 222°
2026-05-03 21:06 -25.53235 -49.17351 2986 ft 9 kts 171°
2026-05-03 21:06 -25.53287 -49.17312 2985 ft 9 kts 136°
2026-05-03 21:06 -25.53332 -49.17264 2985 ft 9 kts 136°
2026-05-03 21:07 -25.53379 -49.17254 2985 ft 8 kts 220°
2026-05-03 21:07 -25.53426 -49.17266 2984 ft 8 kts 154°
2026-05-03 21:07 -25.53470 -49.17275 2984 ft 8 kts 231°
2026-05-03 21:07 -25.53491 -49.17298 2984 ft 0 kts 222°